Location: Janeiro
(34.9957°N, 76.7652°W)
Time: 08:11:21
(UTC+00:00)

Okean 1 - Pass Details

Date: 14 December 2019
Orbit: 539 x 555 km, 82.5° (Epoch: 19 January)

Event Time Altitude Azimuth Distance (km) Brightness Sun altitude
Rises 23:07:37 0° 197° (SSW) 2,696 7.4 -14.2°
Reaches altitude 10° 23:09:49 10° 203° (SSW) 1,805 6.5 -14.6°
Maximum altitude 23:13:40 49° 279° (W) 703 4.2 -15.4°
Drops below altitude 10° 23:17:32 10° 355° (N) 1,810 5.8 -16.1°
Sets 23:19:45 0° 1° (N) 2,704 6.7 -16.6°
